Regional Weather Roundup
Issued by NWS

Home | Current Version | Previous Version | Graphics & Text | Print | Product List | Glossary On
Versions: 1 2 3 4 5 6 7 8 9 10 11 12 13 14 15 16 17 18 19 20 21 22 23 24 25 26 27 28 29 30 31 32 33 34 35 36 37 38 39 40 41 42 43 44 45 46 47 48 49 50
000
ASUS43 KMKX 161600
RWRWI

WISCONSIN REGIONAL WEATHER ROUNDUP
NATIONAL WEATHER SERVICE MILWAUKEE/SULLIVAN WI
1100 AM CDT WED AUG 16 2017

NOTE: "FAIR" INDICATES FEW OR NO CLOUDS BELOW 12,000 FEET WITH NO
SIGNIFICANT WEATHER AND/OR OBSTRUCTIONS TO VISIBILITY.

WIZ001-002-006>008-014>016-023>028-161700-
NORTHWEST WISCONSIN

CITY           SKY/WX    TMP DP  RH WIND       PRES   REMARKS
SUPERIOR ARPT    N/A     65  60  83 NE9G16    29.98S
ASHLAND        PTSUNNY   69  60  73 VRB3      30.00F
HAYWARD        CLOUDY    67  59  75 VRB6      29.99F
SIREN          CLOUDY    67  61  81 SE8       29.95S
CUMBERLAND     DRIZZLE   63  61  94 SE9       29.98R
RICE LAKE      LGT RAIN  65  60  86 SE10      29.99S
CHETEK         LGT RAIN  67  61  80 SE13      29.98F
LADYSMITH      MOSUNNY   71  60  68 SE8       30.02S
EAU CLAIRE     CLOUDY    71  61  70 E9        29.95F
MENOMONIE      CLOUDY    67  66  99 E8        29.95F
NEW RICHMOND   LGT RAIN  64  63  95 SE6       29.93F
OSCEOLA        PTSUNNY   67  67 100 SE12      29.95F
$$

WIZ003>005-009-010-017-018-161700-
NORTH CENTRAL WISCONSIN

CITY           SKY/WX    TMP DP  RH WIND       PRES   REMARKS
MANITOWISH WTR MOSUNNY   66  61  83 SE7       30.04S
ARBOR VITAE    MOSUNNY   67  59  76 SE6       30.04F
WOODRUFF       MOSUNNY   67  59  76 SE6       30.04F
RHINELANDER    MOSUNNY   68  59  73 SE7       30.06S
EAGLE RIVER    MOSUNNY   67  56  69 SE3       30.05F
LAND O LAKES   MOSUNNY   67  57  69 SE3       30.07F
PHILLIPS       CLOUDY    67  59  73 SE8       30.02S
TOMAHAWK         N/A     65  58  77 E3        30.05S
MEDFORD        CLOUDY    66  58  76 E9        30.03S
MERRILL        NOT AVBL
$$

WIZ029-030-035-036-043>047-161700-
CENTRAL WISCONSIN

CITY           SKY/WX    TMP DP  RH WIND       PRES   REMARKS
WAUSAU         CLOUDY    67  59  75 SE12      30.02F
MOSINEE        MOSUNNY   66  63  88 E8        30.04S
MARSHFIELD     CLOUDY    71  58  63 SE12      30.00F
STEVENS POINT  CLOUDY    67  60  80 E8        30.04R
WAUPACA        MOSUNNY   74  60  61 E7        30.03S
WAUTOMA        SUNNY     74  59  59 SE7       30.02S
WISC RAPIDS    CLOUDY    74  60  61 SE9       30.02F
CAMP DOUGLAS   NOT AVBL
$$

WIZ011>013-019>022-031-037>040-048>050-161700-
NORTHEAST WISCONSIN

CITY           SKY/WX    TMP DP  RH WIND       PRES   REMARKS
ANTIGO         CLOUDY    65  59  79 SE6       30.06F
SHAWANO        MOSUNNY   72  63  74 NE7       30.04F
OCONTO         PTSUNNY   69  61  77 E7        30.04F
STURGEON BAY   PTSUNNY   69  62  78 VRB6      30.05F
GREEN BAY      MOSUNNY   74  65  73 E5        30.03F
MANITOWOC      NOT AVBL
APPLETON       NOT AVBL
CLINTONVILLE   CLOUDY    70  59  68 E8        30.04S
OSHKOSH        SUNNY     72  62  71 E8        30.02S
$$

WIZ032>034-041-042-053>061-161700-
SOUTHWEST WISCONSIN

CITY           SKY/WX    TMP DP  RH WIND       PRES   REMARKS
LA CROSSE      SUNNY     78  62  57 SE10      29.93F HX  80
SPARTA         MOSUNNY   75  60  60 SE10      29.97F
VIROQUA        PTSUNNY   73  64  73 SE12      29.97F
BOSCOBEL       MOSUNNY   78  63  59 SE7       29.95F HX  80
PRAIRIE DU CHI MOSUNNY   75  64  67 E9        29.93F
PLATTEVILLE    SUNNY     74  69  85 E8        29.97F
$$

WIZ056-057-062-063-064-067-068-161700-
SOUTH CENTRAL WISCONSIN

CITY           SKY/WX    TMP DP  RH WIND       PRES   REMARKS
REEDSBURG      PTSUNNY   74  59  59 E5        29.99S
BARABOO/DELLS  PTSUNNY   74  57  54 E7        30.00S
LONE ROCK      NOT AVBL
MINERAL POINT  SUNNY     75  66  73 SE9       29.98S
MADISON        MOSUNNY   76  63  64 SE9       29.99F
MIDDLETON      SUNNY     75  60  59 E7        30.00S
WATERTOWN      MOSUNNY   75  65  70 E5        30.00F
MONROE         SUNNY     73  63  68 SE10      29.98F
JANESVILLE     SUNNY     81  66  61 SE10      29.97F HX  83
$$

WIZ051-052-058>065-066-070>072-161700-
SOUTHEAST WISCONSIN

CITY           SKY/WX    TMP DP  RH WIND       PRES   REMARKS
MILWAUKEE      MOSUNNY   75  66  73 E7        30.02S
WAUKESHA       MOSUNNY   75  63  64 E7        30.03S
MILWAUKEE/TIMM SUNNY     73  59  60 E7        30.03S
RACINE         SUNNY     75  67  76 E6        30.03F
KENOSHA        SUNNY     76  65  68 E8        30.01F
FOND DU LAC    SUNNY     76  56  49 E8        30.01F
SHEBOYGAN      SUNNY     72  65  78 E7        30.03S
WEST BEND      SUNNY     73  63  68 SE6       30.02F
JUNEAU         SUNNY     73  62  68 SE6       30.02F
$$

LSZ147-162-161700-
LAKE SUPERIOR

STATION/POSITION TIME  TEMP    WIND        PRES    WAVE
                       AIR SEA DIR/SP/G            HT/PER
                 (UTC) (F)     (DEG/KT/KT) (MB)    (FT/S)
W MID LAKE BUOY  1450   60 60  110/  8/ 10 1016.6F   1/ 3
DEVILS ISLAND    1500   62     100/  8/  8 1016.4R
PORT WING        1440   65      30/  8/  9 1015.9R
SAXON HARBOR     1430   64     320/  2/  2 1015.6S
$$

LMZ867-665-643>646-161700-
LAKE MICHIGAN

STATION/POSITION TIME  TEMP    WIND        PRES    WAVE
                       AIR SEA DIR/SP/G            HT/PER
                 (UTC) (F)     (DEG/KT/KT) (MB)    (FT/S)
S GREEN BAY BUOY 1530   67 71   80/ 12/ 14 1017.2F
N MID LAKE BUOY  1450   65 67   50/  8/  8 1018.7S   1
NORTHPORT PIER   1540   66      70/  9/ 10 1017.6F
KEWAUNEE LAKESHO 1530   69      40/  6/ 10 1016.5F
SHEBOYGAN LAKESH 1500   68      50/  6/  6 1016.6F
PORT WASHINGTON  1540   72      90/  5/  7 1017.6S
MILWAUKEE LAKESH 1530   70      70/  6/  7   N/A
S MID LAKE BUOY  1450   71 71   80/  6/  8 1016.6F   1
KENOSHA   LAKESH 1500   71      80/  7/  8 1016.3
$$

TC  - TEMPERATURE IN CELSIUS
VSB - VISIBILITY IN STATUTE MILES
WCI - WIND CHILL INDEX
HX  - HEAT INDEX





USA.gov is the U.S. government's official web portal to all federal, state and local government web resources and services.